{"data":{"norad_id":50835,"epoch":"2026-09-19T23:04:03.787680Z","epoch_age_seconds":94794,"freshness":"FRESH","line1":"1 50835U 22001AJ  26262.96115495  .00013912  00000+0  78865-3 0  9996","line2":"2 50835  53.2163  24.7468 0001656 109.9256 250.1917 15.13257623259628","mean_motion":15.13257623,"eccentricity":0.0001656,"inclination_deg":53.2163,"raan_deg":24.7468,"arg_perigee_deg":109.9256,"mean_anomaly_deg":250.1917,"bstar":0.00078865,"rev_number":25962,"period_min":95.158945715088,"perigee_km":525.12997203516,"apogee_km":527.41671274056,"semimajor_km":6904.4103423879,"source":"CELESTRAK","updated_at":"2026-09-20T09:00:39.580699Z"}}